Dubuque, IA

2:13 PM CDT on October 18, 2019 (GMT -0500)
Dubuque Regional

Weather History for KDBQ - August, 2019

Change the Weather History Date:

Wednesday, August 21, 2019

  Actual Average Record
Temperature  
Mean Temperature 69 °F 70 °F  
Max Temperature 77 °F 79 °F 98 °F (1947)
Min Temperature 61 °F 60 °F 41 °F (2004)
Degree Days  
Heating Degree Days 0 1  
Month to date heating degree days 0 6  
Since 1 June heating degree days 29 54  
Since 1 July heating degree days 0 14  
Cooling Degree Days 4 5  
Month to date cooling degree days 115 130  
Year to date cooling degree days 568 530  
Since 1 June cooling degree days 542 493  
Growing Degree Days 19 (Base 50)    
Moisture  
Dew Point 66 °F    
Average Humidity 88    
Maximum Humidity 100    
Minimum Humidity 71    
Precipitation  
Precipitation 0.00 in 0.15 in 5.99 in (2002)
Month to date precipitation 4.88 3.05  
Year to date precipitation 30.99 24.63  
Snow  
Snow 0.00 in 0.00 in - ()
Month to date snowfall 0.0 0.0  
Since 1 June snowfall 0.0 0.0  
Since 1 July snowfall 0.0 0.0  
Snow Depth 0.00 in    
Sea Level Pressure  
Sea Level Pressure 29.99 in    
Wind  
Wind Speed 5 mph ()    
Max Wind Speed 14 mph    
Max Gust Speed 18 mph    
Visibility 8.5 miles    
Events      
T = Trace of Precipitation, MM = Missing Value Source: Averaged Metar Reports

Daily Weather History Graph

Daily Weather History Graph

Search for Another Location

Airport or City:

Astronomy

Aug. 21, 2019 Rise Set
Actual Time 6:16 AM CDT 7:55 PM CDT
Civil Twilight 5:46 AM CDT 8:24 PM CDT
Nautical Twilight 5:10 AM CDT 9:00 PM CDT
Astronomical Twilight 4:31 AM CDT 9:39 PM CDT
Moon 11:05 PM CDT (8/21) 11:58 AM CDT (8/21)
Length of Visible Light 14h 38m
Length of Day
13h 39m
Waning Gibbous, 69% of the Moon is Illuminated
Aug 21
Waning Gibbous
Aug 23
Last Quarter
Aug 30
New
Sep 5
First Quarter
Sep 13
Full

Hourly Weather History & Observations

Time (CDT) Temp. Dew Point Humidity Pressure Visibility Wind Dir Wind Speed Gust Speed Precip Events Conditions
12:53 AM 66.9 °F 66.0 °F 97% 29.99 in 10.0 mi SSW 4.6 mph - N/A   Clear
1:53 AM 66.0 °F 66.0 °F 100% 29.98 in 8.0 mi SW 6.9 mph - N/A   Clear
2:53 AM 66.0 °F 66.0 °F 100% 29.97 in 8.0 mi SW 4.6 mph - N/A   Scattered Clouds
3:53 AM 64.9 °F 64.9 °F 100% 29.95 in 5.0 mi Calm Calm - N/A   Partly Cloudy
4:21 AM 64.4 °F 64.4 °F 100% 29.93 in 2.5 mi SSW 3.5 mph - N/A   Clear
4:29 AM 64.9 °F 64.9 °F 100% 29.93 in 4.0 mi Calm Calm - N/A   Clear
4:39 AM 66.0 °F 64.9 °F 96% 29.93 in 2.5 mi Calm Calm - N/A   Clear
4:53 AM 64.9 °F 64.9 °F 100% 29.91 in 9.0 mi Calm Calm - N/A   Clear
5:37 AM 63.0 °F 63.0 °F 100% 29.98 in 3.0 mi WSW 5.8 mph - N/A   Partly Cloudy
5:53 AM 66.0 °F 66.0 °F 100% 29.95 in 8.0 mi SSW 4.6 mph - N/A   Partly Cloudy
6:53 AM 68.0 °F 68.0 °F 100% 29.96 in 4.0 mi Calm Calm - N/A   Clear
7:53 AM 72.0 °F 70.0 °F 93% 29.98 in 9.0 mi NW 3.5 mph - N/A   Clear
8:53 AM 75.9 °F 73.0 °F 91% 29.97 in 10.0 mi NNW 8.1 mph - N/A   Clear
9:25 AM 75.9 °F 72.0 °F 87% 29.99 in 10.0 mi North 8.1 mph - N/A   Partly Cloudy
9:53 AM 75.9 °F 71.1 °F 85% 29.99 in 10.0 mi North 4.6 mph - N/A   Clear
10:18 AM 75.9 °F 71.1 °F 85% 30.02 in 10.0 mi NNW 5.8 mph - N/A   Mostly Cloudy
10:53 AM 75.9 °F 71.1 °F 85% 30.02 in 10.0 mi NW 5.8 mph - N/A   Mostly Cloudy
11:53 AM 75.9 °F 71.1 °F 85% 30.02 in 10.0 mi NNW 10.4 mph - N/A   Mostly Cloudy
12:08 PM 75.0 °F 71.1 °F 87% 30.04 in 10.0 mi NNW 11.5 mph - N/A   Overcast
12:53 PM 75.9 °F 71.1 °F 85% 30.00 in 10.0 mi NNW 9.2 mph - N/A   Mostly Cloudy
1:53 PM 75.0 °F 68.0 °F 79% 30.01 in 10.0 mi NNW 9.2 mph - N/A   Mostly Cloudy
2:08 PM 75.0 °F 69.1 °F 82% 30.03 in 10.0 mi NW 8.1 mph - N/A   Mostly Cloudy
2:53 PM 75.0 °F 66.9 °F 76% 30.01 in 10.0 mi NW 8.1 mph - N/A   Clear
3:53 PM 73.9 °F 66.0 °F 76% 30.00 in 10.0 mi NW 8.1 mph - N/A   Partly Cloudy
4:53 PM 73.9 °F 64.0 °F 71% 29.99 in 10.0 mi NNW 10.4 mph - N/A   Clear
5:53 PM 72.0 °F 64.0 °F 76% 29.97 in 10.0 mi NNW 6.9 mph - N/A   Clear
6:53 PM 70.0 °F 64.9 °F 84% 29.97 in 10.0 mi NNW 5.8 mph - N/A   Partly Cloudy
7:53 PM 69.1 °F 62.1 °F 78% 29.98 in 10.0 mi North 8.1 mph - N/A   Scattered Clouds
8:53 PM 66.9 °F 60.1 °F 79% 30.01 in 10.0 mi NNW 5.8 mph - N/A   Scattered Clouds
9:53 PM 66.0 °F 59.0 °F 78% 30.02 in 10.0 mi North 6.9 mph - N/A   Clear
10:53 PM 64.9 °F 57.9 °F 78% 30.03 in 10.0 mi NNW 3.5 mph - N/A   Clear
11:53 PM 63.0 °F 57.0 °F 81% 30.04 in 10.0 mi NNE 5.8 mph - N/A   Partly Cloudy